Home > Weather > Lexington-Fayette > Past weeks

Flag for U.S.A. Weather for the Past 2 Weeks in Lexington-Fayette, Kentucky, U.S.A.

Now
49 °F

Sunny.


Feels Like: 44 °F
Forecast: 27 / 50 °F
Wind: 12 mph from Southwest

Location: Blue Grass Airport

Current Time: Feb 7, 2016 at 12:39:27 PM

Latest Report: Feb 7, 2016 at 11:54 AM


Visibility: 10 mi

Pressure: 30.11 "Hg

Humidity: 35%

Dew point: 22 °F

Location of Lexington-FayetteLocation

Historic Weather in Lexington-Fayette — Graph

°F

Lexington-Fayette Temperature Yesterday

Maximum temperature yesterday: 49 °F (at 1:54 PM)
Minimum temperature yesterday: 27 °F (at 7:54 AM)
Average temperature yesterday: 37 °F

High & Low Weather Summary for the Past Weeks

 TemperatureHumidityPressure
High70 °F (Feb 2, 2:54 PM)92% (Jan 23, 10:54 PM)30.49 "Hg (Jan 23, 10:54 PM)
Low9 °F (Jan 24, 6:54 AM)30% (Jan 30, 3:54 PM)29.62 "Hg (Feb 3, 1:59 AM)
Average39 °F66%30.06 "Hg
* Reported Jan 23 10:54 AM — Feb 7 10:54 AM, Lexington-Fayette, Weather by CustomWeather, © 2016

Note: Actual official high and low records may vary slightly from our data, if they occured in-between our weather recording intervals... More about our weather records

Advertising

Lexington-Fayette Weather History for the Previous 24 Hours

 ConditionsComfort  
Time TempWeatherWind HumidityBarometerVisibility
10:54 AM
Sun, Feb 7
46 °FSunny.13 mph44%30.13 "Hg10 mi
9:54 AM40 °FSunny.9 mph55%30.16 "Hg10 mi
8:54 AM34 °FSunny.8 mph67%30.17 "Hg10 mi
7:54 AM30 °FSunny.7 mph66%30.18 "Hg10 mi
6:54 AM29 °FClear.6 mph69%30.17 "Hg10 mi
5:54 AM31 °FClear.5 mph67%30.16 "Hg10 mi
4:54 AM32 °FClear.6 mph64%30.17 "Hg10 mi
3:54 AM33 °FClear.5 mph61%30.19 "Hg10 mi
2:54 AM32 °FClear.6 mph66%30.21 "Hg10 mi
1:54 AM34 °FClear.6 mph61%30.22 "Hg10 mi
12:54 AM29 °FClear.8 mph75%30.24 "Hg10 mi
11:54 PM
Sat, Feb 6
29 °FClear.6 mph79%30.25 "Hg10 mi
10:54 PM32 °FClear.7 mph69%30.26 "Hg10 mi
9:54 PM35 °FClear.5 mph61%30.27 "Hg10 mi
8:54 PM37 °FClear.5 mph57%30.28 "Hg10 mi
7:54 PM40 °FClear.No wind51%30.29 "Hg10 mi
6:54 PM43 °FClear.No wind45%30.29 "Hg10 mi
5:54 PM46 °FSunny.6 mph40%30.27 "Hg10 mi
4:54 PM49 °FSunny.9 mph36%30.27 "Hg10 mi
3:54 PM48 °FSunny.9 mph37%30.27 "Hg10 mi
2:54 PM49 °FSunny.12 mph36%30.27 "Hg10 mi
1:54 PM49 °FSunny.8 mph36%30.29 "Hg10 mi
12:54 PM47 °FSunny.6 mph37%30.32 "Hg10 mi
Weather by CustomWeather, © 2016

See weather overviewHow to use our weather pages